Location: Tel Aviv
(32.0670°N, 34.7670°E)
Time: 09:32:55
(UTC+02:00)

Transit 2A Rocket - Pass Details

Date: 15 December 2023
Orbit: 590 x 905 km, 66.7° (Epoch: 01 March)

Event Time Altitude Azimuth Distance (km) Brightness Sun altitude
Rises 18:05:49 0° 216° (SW) 3,084 9.0 -18.1°
Reaches altitude 10° 18:08:18 10° 221° (SW) 2,119 8.1 -18.6°
Maximum altitude 18:12:55 51° 297° (WNW) 815 5.4 -19.5°
Enters shadow 18:15:57 19° 8° (N) 1,497 6.3 -20.2°
